User: anonymous   Login
Location: Bangkok
(13.7500°N, 100.5170°E)
Time: 14:25:43
(UTC+07:00)
Language:

Cosmos 1802 Rocket - Orbit

View from above orbital plane
View from above orbital plane
View from above satellite
View from above satellite

Ground track
Ground track

The orbit data is extracted from the following two-line orbital elements,

1 17160U 86093B   16212.40796841  .00000015  00000-0  47882-6 0  9993
2 17160  82.9295 303.0103 0038095 327.1588  86.8291 13.74582959488660
Epoch (UTC): 30 July 2016 09:47:28
Eccentricity: 0.0038095
inclination: 82.9295°
perigee height: 955 km
apogee height: 1011 km
right ascension of ascending node: 303.0103°
argument of perigee: 327.1588°
revolutions per day: 13.74582959
mean anomaly at epoch: 86.8291°
orbit number at epoch: 48866

The dashed part of the orbit path shows where the satellite is in the earth's shadow,  

DLR